[[{"header":{"parameterUnit":"m.s-1","parameterCategory":1,"la1":30.2991,"la2":30.254,"lo1":-89.0895,"lo2":-89.0444,"dy":0.0017,"dx":0.0017,"nx":28,"ny":28,"refTime":"2025-03-28T21:00:00:Z","depth":0,"parameterNumber":2,"parameterNumberName":"U-component_of_WINDS"},"data":[0,0,0,0,0,0,0,0,0,0,0,0,0,0,0,0,0,0,0,0,0,0,0,0,0,0,0,0,0,0,0,0,0,0,0,0,0,0,0,0,0,0,0,0,0,0,0,0,0,0,0,0,0,0,0,0,0,0,-5.7896,-5.7898,0,-5.8086,-5.8088,-5.809,-5.8111,-5.8109,-5.8107,-5.8105,-5.8297,-5.8304,-5.8311,0,0,0,0,0,0,0,0,0,0,0,0,0,-5.7549,-5.7556,-5.7895,-5.7898,-5.79,-5.8085,-5.8088,-5.809,-5.8111,-5.8109,-5.8106,-5.8104,-5.8295,-5.8303,-5.8311,0,0,0,0,0,0,0,0,0,0,0,0,0,-5.7715,-5.7558,-5.7895,-5.7933,-5.7938,-5.8085,-5.8088,-5.8091,-5.8112,-5.8109,-5.8106,-5.8103,-5.8292,-5.8302,-5.8312,-5.8434,0,0,-5.8344,-5.8348,0,0,0,0,0,0,0,0,-5.7706,-5.7728,-5.7925,-5.793,-5.7937,-5.8072,-5.8036,-5.8206,-5.8112,-5.8046,-5.8105,-5.8102,-5.8224,-5.824,-5.8282,-5.8443,-5.8451,-5.8345,-5.8351,-5.8356,-5.8359,0,0,0,0,0,0,0,-5.7694,-5.772,-5.797,-5.7928,-5.7935,-5.794,-5.796,-5.8069,-5.8149,-5.8051,-5.8053,-5.8076,-5.8227,-5.8272,-5.8286,-5.8454,-5.8345,-5.8354,-5.836,-5.8364,-5.8724,-5.8727,0,0,0,0,0,0,-5.7676,-5.771,-5.7964,-5.7976,-5.7812,-5.7949,-5.7971,-5.8031,-5.8147,-5.8163,-5.8078,-5.8076,-5.8256,-5.8274,-5.8293,-5.8442,-5.8356,-5.8365,-5.8371,-5.872,-5.8724,-5.8728,0,0,0,0,0,0,-5.7669,-5.7699,-5.7957,-5.7844,-5.7877,-5.7958,-5.8024,-5.8036,-5.8081,-5.8168,-5.8182,-5.8109,-5.8254,-5.8279,-5.8399,-5.8449,-5.837,-5.8379,-5.8716,-5.8722,-5.8726,-5.874,0,0,0,0,0,0,-5.7659,-5.7696,-5.7742,-5.7845,-5.7883,-5.8059,-5.8028,-5.8042,-5.8099,-5.8099,-5.8201,-5.8215,-5.8254,-5.8383,-5.8409,-5.8462,-5.8387,-5.8712,-5.8719,-5.8725,-5.8736,-5.8745,-5.8754,0,0,0,0,0,-5.7646,-5.7738,-5.7745,-5.7775,-5.7943,-5.8062,-5.8084,-5.8127,-5.8103,-5.8151,-5.8207,-5.8211,-5.844,-5.8395,-5.8425,-5.8481,-5.8709,-5.8717,-5.8724,-5.8732,-5.8743,-5.8753,0,0,0,0,0,0,-5.7638,-5.7752,-5.7761,-5.7889,-5.7966,-5.8065,-5.8126,-5.8138,-5.8223,-5.8218,-5.8269,-5.8292,-5.8409,-5.8458,-5.8406,-5.8605,-5.8572,-5.8586,-5.8568,-5.858,-5.8588,-5.8573,-5.8396,0,0,0,0,0,-5.7652,-5.7739,-5.7834,-5.7938,-5.7976,-5.8045,-5.8098,-5.8126,-5.8207,-5.8239,-5.8304,-5.8382,-5.8471,-5.8529,-5.8616,-5.8745,-5.8766,-5.8798,-5.8807,-5.8814,-5.8824,-5.8895,-5.891,-5.8753,-5.8753,-5.8753,0,0,-5.768,-5.7753,-5.7804,-5.7938,-5.8001,-5.809,-5.8072,-5.8166,-5.8232,-5.8253,-5.837,-5.8421,-5.8511,-5.8636,-5.8694,-5.868,-5.8873,-5.8823,-5.8828,-5.8835,-5.8904,-5.8919,-5.8932,-5.8758,-5.8757,-5.8756,0,0,-5.7775,-5.784,-5.7933,-5.7997,-5.8093,-5.8139,-5.8162,-5.8261,-5.8295,-5.8414,-5.8431,-5.8511,-5.8664,-5.8728,-5.8781,-5.8904,-5.8911,-5.8931,-5.8976,-5.9045,-5.9057,-5.9068,-5.911,-5.9125,-5.8942,-5.8942,-5.8942,0,-5.7797,-5.7932,-5.798,-5.8074,-5.8132,-5.8158,-5.8252,-5.8312,-5.8431,-5.847,-5.8454,-5.8647,-5.871,-5.885,-5.888,-5.8923,-5.8949,-5.8918,-5.9052,-5.9063,-5.9074,-5.9115,-5.9131,-5.8944,-5.8943,-5.8943,-5.8943,0,-5.7953,-5.8047,-5.8111,-5.8226,-5.8292,-5.8386,-5.8448,-5.8509,-5.8532,-5.8579,-5.87,-5.8777,-5.888,-5.8917,-5.8939,-5.906,-5.9048,-5.9041,-5.9009,-5.909,-5.9129,-5.9145,-5.8946,-5.8945,-5.8945,-5.8944,0,0,-5.8044,-5.8188,-5.821,-5.8263,-5.8372,-5.8445,-5.8541,-5.8643,-5.8694,-5.8777,-5.8857,-5.8988,-5.8983,-5.9043,-5.9074,-5.9134,-5.9225,-5.912,-5.9123,-5.9135,-5.9362,-5.9364,-5.9381,-5.9233,-5.9236,-5.9239,-5.9353,0,-5.815,-5.8321,-5.8369,-5.8513,-5.86,-5.8627,-5.8711,-5.8787,-5.8834,-5.8915,-5.8968,-5.9059,-5.9046,-5.9082,-5.9144,-5.9201,-5.9271,-5.9194,-5.9306,-5.931,-5.9279,-5.9402,-5.9404,-5.9508,-5.9369,-5.9372,-5.9374,0,-5.8295,-5.8382,-5.8535,-5.8634,-5.8672,-5.8746,-5.8844,-5.8921,-5.9009,-5.9039,-5.9108,-5.9134,-5.9234,-5.92,-5.9339,-5.9286,-5.9335,-5.9371,-5.9376,-5.9385,-5.9344,-5.9411,-5.9542,-5.9557,-5.9398,-5.9396,-5.9395,0,-5.8343,-5.8498,-5.861,-5.8655,-5.8774,-5.8825,-5.8877,-5.8962,-5.9021,-5.9107,-5.9146,-5.9243,-5.9295,-5.9369,-5.942,-5.9391,-5.9555,-5.9525,-5.9582,-5.958,-5.9611,-5.9608,-5.9749,-5.9649,-5.9649,-5.9649,-5.9648,0,-5.8454,-5.8546,-5.8633,-5.8701,-5.8806,-5.8861,-5.8962,-5.9015,-5.9091,-5.917,-5.9201,-5.9274,-5.9339,-5.9422,-5.9463,-5.9571,-5.9595,-5.9622,-5.9631,-5.9617,-5.9613,-5.9647,-5.964,-5.9653,-5.9652,-5.9651,-5.965,0,-5.8523,-5.8586,-5.8709,-5.8813,-5.8841,-5.8913,-5.9002,-5.9069,-5.912,-5.922,-5.9246,-5.9325,-5.9424,-5.9484,-5.9609,-5.9636,-5.9755,-5.9763,-5.9725,-5.9729,-5.9781,-5.9774,-5.9946,-5.9971,-5.9857,-5.9858,-5.9859,0,-5.8588,-5.8659,-5.8772,-5.8827,-5.888,-5.8969,-5.903,-5.9088,-5.915,-5.9256,-5.9311,-5.9412,-5.9495,-5.9652,-5.972,-5.9816,-5.9824,-5.9878,-5.9838,-5.9822,-5.9822,-5.9816,-5.9822,-5.9883,-5.9884,-5.9885,-5.9886,0,-5.8695,-5.8723,-5.881,-5.8908,-5.898,-5.906,-5.9139,-5.9183,-5.9255,-5.9323,-5.9425,-5.949,-5.9619,-5.9718,-5.982,-5.9874,-5.9891,-5.9899,-5.9916,-5.9901,-5.9875,-5.9887,-5.974,-5.9893,-5.9892,-5.9892,-5.9891,-5.9891,-5.8762,-5.8827,-5.8917,-5.9012,-5.9079,-5.9153,-5.9222,-5.9282,-5.9368,-5.9477,-5.9507,-5.9613,-5.9701,-5.9841,-5.9897,-5.9981,-5.9972,-5.9998,-6.0004,-6.0009,-6.0009,-5.9865,-6.0,-6.0,-6.0,-6.0,-5.9999,0,-5.8869,-5.8929,-5.9017,-5.9128,-5.9203,-5.9216,-5.9306,-5.9367,-5.9461,-5.9542,-5.9624,-5.9741,-5.9839,-5.9916,-6.0016,-6.0069,-6.0079,-6.0093,-6.0087,-6.0099,-6.0012,-5.9985,-6.0082,-6.0082,-6.0082,-6.0082,-6.0082,-6.0082,-5.8933,-5.9043,-5.9082,-5.9226,-5.9286,-5.939,-5.944,-5.9509,-5.9574,-5.9703,-5.9785,-5.9836,-5.9915,-6.0022,-6.0112,-6.0132,-6.0166,-6.0178,-6.0199,-6.0115,-6.0105,-6.0097,-6.0072,-6.0186,-6.0186,-6.0279,-6.028,-6.0281]},{"header":{"parameterUnit":"m.s-1","parameterCategory":1,"la1":30.2991,"la2":30.254,"lo1":-89.0895,"lo2":-89.0444,"dy":0.0017,"dx":0.0017,"nx":28,"ny":28,"refTime":"2025-03-28T21:00:00:Z","depth":0,"parameterNumber":3,"parameterNumberName":"V-component_of_WINDS"},"data":[0,0,0,0,0,0,0,0,0,0,0,0,0,0,0,0,0,0,0,0,0,0,0,0,0,0,0,0,0,0,0,0,0,0,0,0,0,0,0,0,0,0,0,0,0,0,0,0,0,0,0,0,0,0,0,0,0,0,3.686,3.686,0,3.6924,3.6925,3.6925,3.689,3.6889,3.6887,3.6885,3.6949,3.6952,3.6955,0,0,0,0,0,0,0,0,0,0,0,0,0,3.6706,3.6709,3.686,3.686,3.6861,3.6924,3.6925,3.6926,3.6891,3.6888,3.6886,3.6884,3.6948,3.6952,3.6956,0,0,0,0,0,0,0,0,0,0,0,0,0,3.6771,3.671,3.6859,3.6851,3.6851,3.6924,3.6925,3.6926,3.6891,3.6888,3.6886,3.6883,3.6946,3.6951,3.6956,3.7039,0,0,3.6971,3.6973,0,0,0,0,0,0,0,0,3.6768,3.6777,3.6852,3.6852,3.6852,3.6896,3.6894,3.6964,3.6892,3.6876,3.6885,3.6882,3.6933,3.6939,3.6957,3.7042,3.7045,3.6972,3.6975,3.6977,3.6978,0,0,0,0,0,0,0,3.6763,3.6774,3.6885,3.6853,3.6853,3.6844,3.6851,3.6907,3.6918,3.6877,3.6875,3.6883,3.6933,3.6952,3.6958,3.7046,3.6972,3.6976,3.6979,3.6981,3.7205,3.7208,0,0,0,0,0,0,3.6759,3.6771,3.6883,3.6887,3.6803,3.6849,3.6856,3.6885,3.6918,3.692,3.6885,3.6881,3.6945,3.6952,3.696,3.7062,3.6977,3.6982,3.6984,3.7202,3.7206,3.7209,0,0,0,0,0,0,3.6756,3.677,3.688,3.6828,3.6842,3.6855,3.6887,3.6887,3.6907,3.6924,3.6926,3.6903,3.6943,3.6953,3.7021,3.7063,3.6984,3.6988,3.7199,3.7204,3.7208,3.7264,0,0,0,0,0,0,3.6752,3.6769,3.6801,3.6829,3.6845,3.694,3.6889,3.6891,3.6916,3.6911,3.6941,3.6943,3.6942,3.7013,3.7026,3.7069,3.6992,3.7195,3.7201,3.7206,3.7259,3.727,3.728,0,0,0,0,0,3.6747,3.6813,3.6802,3.6816,3.6885,3.6943,3.6951,3.6949,3.6919,3.6952,3.6963,3.6942,3.7057,3.7021,3.7034,3.7079,3.7193,3.7199,3.7206,3.7254,3.7268,3.728,0,0,0,0,0,0,3.6788,3.6817,3.6805,3.6883,3.6911,3.6937,3.6977,3.6963,3.7,3.6994,3.6988,3.6996,3.7066,3.7079,3.7039,3.7163,3.712,3.713,3.7152,3.7165,3.7176,3.7172,3.6996,0,0,0,0,0,3.6806,3.6851,3.6874,3.694,3.6955,3.6964,3.6989,3.6985,3.7013,3.7024,3.704,3.7068,3.7111,3.7138,3.7178,3.726,3.7267,3.7298,3.7309,3.7318,3.7326,3.7373,3.7387,3.7231,3.7231,3.7231,0,0,3.6844,3.6866,3.6894,3.6949,3.697,3.7017,3.6974,3.7025,3.706,3.7032,3.7097,3.711,3.7141,3.7217,3.7251,3.723,3.7371,3.7326,3.7333,3.7337,3.7381,3.7396,3.7409,3.7236,3.7235,3.7234,0,0,3.6938,3.6958,3.7017,3.7039,3.7073,3.7078,3.7093,3.7121,3.7129,3.7195,3.7176,3.7217,3.7289,3.7313,3.7334,3.7439,3.7422,3.7452,3.7508,3.7553,3.7566,3.7576,3.7616,3.7629,3.746,3.746,3.7461,0,3.6981,3.7051,3.7048,3.7102,3.7127,3.7106,3.7166,3.7187,3.7231,3.7249,3.7225,3.7318,3.7336,3.7418,3.7444,3.7462,3.7479,3.7449,3.7564,3.7575,3.7585,3.7622,3.7637,3.7464,3.7464,3.7463,3.7463,0,3.7104,3.7153,3.7196,3.7241,3.7271,3.7327,3.7333,3.7364,3.7358,3.7366,3.7434,3.7457,3.7502,3.7521,3.7514,3.7602,3.7589,3.7564,3.7521,3.7604,3.7639,3.7653,3.7469,3.7468,3.7467,3.7466,0,0,3.7225,3.7269,3.7285,3.7306,3.7342,3.738,3.7435,3.748,3.7508,3.7539,3.7586,3.7649,3.7628,3.7652,3.7648,3.7688,3.7772,3.7659,3.766,3.7681,3.7873,3.7892,3.7909,3.7761,3.7764,3.7766,3.7871,0,3.7322,3.7421,3.742,3.7511,3.7558,3.7539,3.7587,3.7615,3.7625,3.7665,3.7675,3.7721,3.7688,3.7703,3.7742,3.7754,3.7811,3.7746,3.7806,3.7808,3.78,3.7927,3.7947,3.8045,3.7885,3.7887,3.7888,0,3.7449,3.7486,3.7583,3.7614,3.7633,3.7677,3.772,3.7758,3.7789,3.7794,3.7822,3.7813,3.787,3.7825,3.7904,3.786,3.7884,3.7894,3.7898,3.7904,3.7854,3.7938,3.8076,3.8091,3.791,3.7908,3.7906,0,3.753,3.7604,3.7672,3.769,3.7728,3.7759,3.7776,3.7805,3.7833,3.7869,3.7888,3.793,3.7954,3.7987,3.799,3.7956,3.807,3.8025,3.8076,3.8077,3.8102,3.8101,3.8247,3.8115,3.8115,3.8115,3.8114,0,3.764,3.77,3.7709,3.7751,3.7818,3.7817,3.7884,3.7898,3.7924,3.7968,3.7953,3.7995,3.7995,3.8038,3.804,3.8107,3.8117,3.8123,3.8123,3.8125,3.8125,3.8142,3.8135,3.8119,3.8118,3.8117,3.8116,0,3.7742,3.775,3.7824,3.7854,3.7863,3.7911,3.7937,3.7977,3.7986,3.8042,3.8055,3.8069,3.8119,3.8125,3.8182,3.8184,3.8265,3.8257,3.8255,3.8254,3.8306,3.8302,3.847,3.8493,3.8345,3.8346,3.8347,0,3.7812,3.7858,3.7894,3.7923,3.7943,3.7989,3.8018,3.8019,3.805,3.809,3.8126,3.8175,3.8214,3.8294,3.831,3.8354,3.8348,3.8404,3.8354,3.8356,3.8351,3.8349,3.8354,3.8414,3.8415,3.8417,3.8418,0,3.7936,3.7939,3.7982,3.8027,3.8062,3.8097,3.813,3.8155,3.816,3.8196,3.8247,3.8278,3.8338,3.8387,3.8431,3.8448,3.8435,3.8433,3.8448,3.8451,3.8449,3.8453,3.8283,3.8429,3.8428,3.8427,3.8427,3.8426,3.8026,3.8067,3.8099,3.8148,3.8173,3.8205,3.8245,3.826,3.8303,3.8353,3.835,3.8408,3.8439,3.8497,3.8518,3.8563,3.8544,3.8565,3.8571,3.8576,3.8582,3.8441,3.8571,3.857,3.857,3.857,3.8569,0,3.8151,3.8171,3.8216,3.8264,3.8303,3.8287,3.8323,3.8357,3.8408,3.8438,3.8478,3.8538,3.8586,3.8606,3.8653,3.8685,3.868,3.8698,3.8696,3.8701,3.8595,3.8579,3.8701,3.8701,3.8701,3.8701,3.8701,3.8701,3.8221,3.829,3.8297,3.8379,3.8399,3.8456,3.8478,3.8508,3.8532,3.8601,3.8641,3.8654,3.868,3.873,3.8773,3.8778,3.8797,3.8817,3.8819,3.8721,3.8708,3.8695,3.868,3.8821,3.8821,3.8921,3.8922,3.8923]}]]